CommID,deviceName,DataDateTime,GPSLatitude,GPSLongitude,Submerged,gpsQuality,BatteryVoltage,SST,IridiumLatitude,IridiumLongitude,IridiumRadiusKm,orgName,bPressTend,windDir,windSpeed,bPress,SurfaceSalinity,temperature7m,salinity7m,temperature15m,salinity15m
300234060755220,SFOS-MS-0037,12/12/2013 3:00:08 PM,71.814227,-170.808321,True,3,9.0,46.05,71.483850,-170.537670,3,School of Fisheries and Ocean Sciences,,,,,,,,,
300234060755220,SFOS-MS-0037,12/12/2013 2:00:12 PM,71.809241,-170.819102,True,3,9.0,46.05,71.460430,-170.480710,4,School of Fisheries and Ocean Sciences,,,,,,,,,
300234060755220,SFOS-MS-0037,12/12/2013 1:30:08 PM,71.806241,-170.823927,True,3,9.0,46.10,71.463670,-170.548540,4,School of Fisheries and Ocean Sciences,,,,,,,,,
300234060755220,SFOS-MS-0037,12/12/2013 1:00:38 PM,71.803102,-170.827638,True,3,9.0,46.10,71.480600,-170.469710,3,School of Fisheries and Ocean Sciences,,,,,,,,,
300234060755220,SFOS-MS-0037,12/12/2013 12:30:10 PM,71.799888,-170.831329,True,3,9.0,46.10,71.483850,-170.537670,1,School of Fisheries and Ocean Sciences,,,,,,,,,
300234060755220,SFOS-MS-0037,12/12/2013 12:00:07 PM,71.796766,-170.834018,True,3,9.0,46.10,71.463670,-170.548540,3,School of Fisheries and Ocean Sciences,,,,,,,,,
300234060755220,SFOS-MS-0037,12/12/2013 11:30:07 AM,71.793591,-170.836490,True,3,9.0,46.10,71.499520,-171.278130,72,School of Fisheries and Ocean Sciences,,,,,,,,,
300234060755220,SFOS-MS-0037,12/12/2013 11:00:07 AM,71.790497,-170.838293,True,3,9.0,46.15,71.463670,-170.548540,2,School of Fisheries and Ocean Sciences,,,,,,,,,
300234060755220,SFOS-MS-0037,12/12/2013 10:30:08 AM,71.787375,-170.839899,True,3,9.0,46.15,71.480600,-170.469710,2,School of Fisheries and Ocean Sciences,,,,,,,,,
300234060755220,SFOS-MS-0037,12/12/2013 10:00:38 AM,71.784444,-170.840449,True,3,9.0,46.15,71.460430,-170.480710,3,School of Fisheries and Ocean Sciences,,,,,,,,,
300234060755220,SFOS-MS-0037,12/12/2013 9:30:09 AM,71.781525,-170.840721,True,3,9.0,46.15,71.483850,-170.537670,3,School of Fisheries and Ocean Sciences,,,,,,,,,
300234060755220,SFOS-MS-0037,12/12/2013 9:00:08 AM,71.778755,-170.840257,True,3,9.0,46.15,71.480600,-170.469710,4,School of Fisheries and Ocean Sciences,,,,,,,,,
300234060755220,SFOS-MS-0037,12/12/2013 8:30:08 AM,71.776102,-170.839568,True,3,9.0,-5.00,71.483850,-170.537670,4,School of Fisheries and Ocean Sciences,,,,,,,,,
300234060755220,SFOS-MS-0037,12/12/2013 8:00:09 AM,71.773552,-170.838693,True,3,9.0,-5.00,71.460430,-170.480710,4,School of Fisheries and Ocean Sciences,,,,,,,,,
300234060755220,SFOS-MS-0037,12/12/2013 7:30:07 AM,71.771163,-170.837618,True,3,9.0,-5.00,71.460430,-170.480710,2,School of Fisheries and Ocean Sciences,,,,,,,,,
300234060755220,SFOS-MS-0037,12/12/2013 7:00:37 AM,71.769011,-170.836440,True,3,9.0,-5.00,71.440270,-170.491670,3,School of Fisheries and Ocean Sciences,,,,,,,,,
300234060755220,SFOS-MS-0037,12/12/2013 6:30:08 AM,71.766925,-170.835410,True,3,9.0,-5.00,71.403440,-171.599270,78,School of Fisheries and Ocean Sciences,,,,,,,,,
300234060755220,SFOS-MS-0037,12/12/2013 6:00:07 AM,71.764938,-170.834440,True,3,9.0,-5.00,71.460430,-170.480710,2,School of Fisheries and Ocean Sciences,,,,,,,,,
300234060755220,SFOS-MS-0037,12/12/2013 5:30:06 AM,71.763066,-170.833440,True,3,9.0,-5.00,71.440270,-170.491670,3,School of Fisheries and Ocean Sciences,,,,,,,,,
300234060755220,SFOS-MS-0037,12/12/2013 5:00:08 AM,71.761219,-170.832368,True,3,9.0,-4.95,71.443500,-170.559370,1,School of Fisheries and Ocean Sciences,,,,,,,,,
300234060755220,SFOS-MS-0037,12/12/2013 4:30:08 AM,71.759436,-170.831621,True,3,9.0,-4.95,71.440270,-170.491670,3,School of Fisheries and Ocean Sciences,,,,,,,,,
300234060755220,SFOS-MS-0037,12/12/2013 4:00:37 AM,71.757733,-170.831118,True,3,9.0,-4.95,71.440270,-170.491670,6,School of Fisheries and Ocean Sciences,,,,,,,,,
300234060755220,SFOS-MS-0037,12/12/2013 3:30:08 AM,71.755916,-170.830868,True,3,9.0,-4.90,71.460430,-170.480710,3,School of Fisheries and Ocean Sciences,,,,,,,,,
300234060755220,SFOS-MS-0037,12/12/2013 3:00:08 AM,71.754116,-170.831010,True,3,9.0,-4.90,71.440270,-170.491670,2,School of Fisheries and Ocean Sciences,,,,,,,,,
300234060755220,SFOS-MS-0037,12/12/2013 2:30:07 AM,71.752161,-170.831049,True,3,9.0,-4.90,71.443500,-170.559370,3,School of Fisheries and Ocean Sciences,,,,,,,,,
300234060755220,SFOS-MS-0037,12/12/2013 2:00:07 AM,71.750125,-170.831290,True,3,9.0,-4.90,71.440270,-170.491670,2,School of Fisheries and Ocean Sciences,,,,,,,,,
300234060755220,SFOS-MS-0037,12/12/2013 1:30:07 AM,71.747958,-170.831488,True,3,9.0,-4.85,71.440270,-170.491670,3,School of Fisheries and Ocean Sciences,,,,,,,,,
300234060755220,SFOS-MS-0037,12/12/2013 1:00:37 AM,71.745736,-170.831577,True,3,9.0,-4.85,71.443500,-170.559370,2,School of Fisheries and Ocean Sciences,,,,,,,,,
300234060755220,SFOS-MS-0037,12/12/2013 12:30:07 AM,71.743352,-170.831382,True,3,9.0,-4.80,71.433520,-170.491670,3,School of Fisheries and Ocean Sciences,,,,,,,,,
300234060755220,SFOS-MS-0037,12/12/2013 12:00:08 AM,71.740972,-170.831140,True,3,9.0,-4.80,71.460430,-170.480710,4,School of Fisheries and Ocean Sciences,,,,,,,,,
300234060755220,SFOS-MS-0037,12/11/2013 11:30:08 PM,71.738544,-170.830685,True,3,9.0,-4.80,71.436990,-170.424010,1,School of Fisheries and Ocean Sciences,,,,,,,,,
300234060755220,SFOS-MS-0037,12/11/2013 11:00:08 PM,71.735997,-170.829488,True,3,9.0,-4.75,71.413360,-170.502590,2,School of Fisheries and Ocean Sciences,,,,,,,,,
300234060755220,SFOS-MS-0037,12/11/2013 10:30:08 PM,71.733416,-170.827388,True,3,9.0,-4.75,71.436990,-170.424010,2,School of Fisheries and Ocean Sciences,,,,,,,,,
300234060755220,SFOS-MS-0037,12/11/2013 10:00:37 PM,71.730825,-170.824885,True,3,9.0,-4.70,71.430240,-170.424010,2,School of Fisheries and Ocean Sciences,,,,,,,,,
300234060755220,SFOS-MS-0037,12/11/2013 9:30:10 PM,71.728272,-170.822599,True,3,9.0,-4.70,71.436990,-170.424010,3,School of Fisheries and Ocean Sciences,,,,,,,,,
300234060755220,SFOS-MS-0037,12/11/2013 9:00:10 PM,71.725719,-170.818329,True,3,9.0,-4.65,71.416590,-170.570160,11,School of Fisheries and Ocean Sciences,,,,,,,,,
300234060755220,SFOS-MS-0037,12/11/2013 8:30:08 PM,71.723266,-170.814232,True,3,9.0,-4.65,71.410090,-170.435060,6,School of Fisheries and Ocean Sciences,,,,,,,,,
300234060755220,SFOS-MS-0037,12/11/2013 8:00:09 PM,71.720852,-170.809554,True,3,9.0,-4.60,71.413360,-170.502590,4,School of Fisheries and Ocean Sciences,,,,,,,,,
300234060755220,SFOS-MS-0037,12/11/2013 7:30:08 PM,71.718527,-170.804438,True,3,9.0,-4.60,71.413360,-170.502590,5,School of Fisheries and Ocean Sciences,,,,,,,,,
300234060755220,SFOS-MS-0037,12/11/2013 7:00:08 PM,71.716341,-170.799024,True,3,9.0,-4.55,71.413360,-170.502590,3,School of Fisheries and Ocean Sciences,,,,,,,,,
300234060755220,SFOS-MS-0037,12/11/2013 6:30:08 PM,71.714375,-170.793415,True,3,9.0,-4.55,71.413360,-170.502590,2,School of Fisheries and Ocean Sciences,,,,,,,,,
300234060755220,SFOS-MS-0037,12/11/2013 6:00:35 PM,71.712500,-170.787627,True,3,9.0,-4.55,71.487310,-172.379750,126,School of Fisheries and Ocean Sciences,,,,,,,,,
300234060755220,SFOS-MS-0037,12/11/2013 5:30:08 PM,71.710686,-170.781899,True,3,9.0,-4.50,71.416590,-170.570160,5,School of Fisheries and Ocean Sciences,,,,,,,,,
300234060755220,SFOS-MS-0037,12/11/2013 5:00:08 PM,71.709002,-170.776402,True,3,9.0,-4.45,71.413360,-170.502590,3,School of Fisheries and Ocean Sciences,,,,,,,,,
300234060755220,SFOS-MS-0037,12/11/2013 4:30:08 PM,71.707402,-170.771071,True,3,9.0,-4.45,71.406770,-170.367570,2,School of Fisheries and Ocean Sciences,,,,,,,,,
300234060755220,SFOS-MS-0037,12/11/2013 4:00:37 PM,71.705872,-170.766013,True,3,9.0,-4.40,71.413360,-170.502590,3,School of Fisheries and Ocean Sciences,,,,,,,,,
300234060755220,SFOS-MS-0037,12/11/2013 3:30:07 PM,71.704322,-170.760943,True,3,9.0,-4.40,71.413360,-170.502590,2,School of Fisheries and Ocean Sciences,,,,,,,,,
300234060755220,SFOS-MS-0037,12/11/2013 3:00:07 PM,71.702847,-170.755568,True,3,9.0,-4.35,71.413360,-170.502590,3,School of Fisheries and Ocean Sciences,,,,,,,,,
300234060755220,SFOS-MS-0037,12/11/2013 2:30:08 PM,71.701377,-170.750268,True,3,9.0,-4.35,71.433520,-170.491670,2,School of Fisheries and Ocean Sciences,,,,,,,,,
300234060755220,SFOS-MS-0037,12/11/2013 2:00:08 PM,71.699916,-170.745438,True,3,9.0,-4.30,71.440270,-170.491670,5,School of Fisheries and Ocean Sciences,,,,,,,,,
300234060755220,SFOS-MS-0037,12/11/2013 1:30:08 PM,71.698391,-170.740674,True,3,9.0,-4.30,71.410090,-170.435060,4,School of Fisheries and Ocean Sciences,,,,,,,,,
300234060755220,SFOS-MS-0037,12/11/2013 1:00:38 PM,71.696822,-170.735943,True,3,9.0,-4.25,71.413360,-170.502590,2,School of Fisheries and Ocean Sciences,,,,,,,,,
300234060755220,SFOS-MS-0037,12/11/2013 12:30:13 PM,71.694977,-170.730585,True,3,9.0,-4.25,71.406770,-170.367570,3,School of Fisheries and Ocean Sciences,,,,,,,,,
300234060755220,SFOS-MS-0037,12/11/2013 12:00:09 PM,71.693197,-170.725563,True,3,9.0,-4.20,71.406770,-170.367570,2,School of Fisheries and Ocean Sciences,,,,,,,,,
300234060755220,SFOS-MS-0037,12/11/2013 11:30:09 AM,71.691183,-170.720149,True,3,9.0,-4.15,71.413360,-170.502590,3,School of Fisheries and Ocean Sciences,,,,,,,,,
300234060755220,SFOS-MS-0037,12/11/2013 11:00:08 AM,71.688891,-170.714004,True,3,9.0,-4.15,71.254370,-162.230400,303,School of Fisheries and Ocean Sciences,,,,,,,,,
300234060755220,SFOS-MS-0037,12/11/2013 10:30:07 AM,71.686563,-170.707435,True,3,9.0,-4.10,71.430240,-170.424010,5,School of Fisheries and Ocean Sciences,,,,,,,,,
300234060755220,SFOS-MS-0037,12/11/2013 10:00:37 AM,71.684244,-170.700649,True,3,9.0,-4.10,72.193280,-178.349590,290,School of Fisheries and Ocean Sciences,,,,,,,,,
300234060755220,SFOS-MS-0037,12/11/2013 9:30:07 AM,71.681655,-170.692632,True,3,9.0,-4.05,71.406770,-170.367570,2,School of Fisheries and Ocean Sciences,,,,,,,,,
300234060755220,SFOS-MS-0037,12/11/2013 9:00:08 AM,71.679088,-170.683999,True,3,9.0,-4.00,71.410090,-170.435060,3,School of Fisheries and Ocean Sciences,,,,,,,,,
300234060755220,SFOS-MS-0037,12/11/2013 8:30:08 AM,71.676611,-170.674768,True,3,9.0,-4.00,71.386630,-170.378700,3,School of Fisheries and Ocean Sciences,,,,,,,,,
300234060755220,SFOS-MS-0037,12/11/2013 8:00:08 AM,71.674219,-170.664979,True,3,9.0,-3.95,71.410090,-170.435060,2,School of Fisheries and Ocean Sciences,,,,,,,,,
300234060755220,SFOS-MS-0037,12/11/2013 7:30:08 AM,71.671961,-170.654782,True,3,9.0,-3.90,71.386630,-170.378700,4,School of Fisheries and Ocean Sciences,,,,,,,,,
300234060755220,SFOS-MS-0037,12/11/2013 7:00:37 AM,71.669991,-170.644502,True,3,9.0,-3.90,71.376260,-170.591610,24,School of Fisheries and Ocean Sciences,,,,,,,,,
300234060755220,SFOS-MS-0037,12/11/2013 6:30:09 AM,71.668111,-170.633524,True,3,9.0,-3.85,71.442200,-169.325090,79,School of Fisheries and Ocean Sciences,,,,,,,,,
300234060755220,SFOS-MS-0037,12/11/2013 6:00:08 AM,71.666475,-170.622782,True,3,9.0,-3.85,72.152130,-163.317500,276,School of Fisheries and Ocean Sciences,,,,,,,,,
300234060755220,SFOS-MS-0037,12/11/2013 5:30:08 AM,71.664961,-170.611827,True,3,9.0,-3.80,71.403420,-170.300130,2,School of Fisheries and Ocean Sciences,,,,,,,,,
300234060755220,SFOS-MS-0037,12/11/2013 5:00:08 AM,71.663561,-170.601082,True,3,9.0,-3.75,71.202590,-179.618400,309,School of Fisheries and Ocean Sciences,,,,,,,,,
300234060755220,SFOS-MS-0037,12/11/2013 4:30:07 AM,71.662333,-170.590399,True,3,9.0,-3.75,71.403420,-170.300130,2,School of Fisheries and Ocean Sciences,,,,,,,,,
300234060755220,SFOS-MS-0037,12/11/2013 4:00:37 AM,71.661202,-170.580507,True,3,9.0,-3.70,71.383290,-170.311390,2,School of Fisheries and Ocean Sciences,,,,,,,,,
300234060755220,SFOS-MS-0037,12/11/2013 3:30:07 AM,71.660072,-170.570713,True,3,9.0,-3.70,71.383290,-170.311390,4,School of Fisheries and Ocean Sciences,,,,,,,,,
300234060755220,SFOS-MS-0037,12/11/2013 3:00:07 AM,71.659000,-170.561388,True,3,9.0,-3.65,71.403420,-170.300130,6,School of Fisheries and Ocean Sciences,,,,,,,,,
300234060755220,SFOS-MS-0037,12/11/2013 2:30:08 AM,71.657977,-170.552321,True,3,9.0,-3.60,71.314320,-172.516570,109,School of Fisheries and Ocean Sciences,,,,,,,,,
300234060755220,SFOS-MS-0037,12/11/2013 2:00:08 AM,71.656941,-170.543699,True,3,9.0,-3.60,71.383290,-170.311390,3,School of Fisheries and Ocean Sciences,,,,,,,,,
300234060755220,SFOS-MS-0037,12/11/2013 1:30:08 AM,71.655841,-170.535668,True,3,9.0,-3.55,71.386630,-170.378700,2,School of Fisheries and Ocean Sciences,,,,,,,,,
300234060755220,SFOS-MS-0037,12/11/2013 1:00:37 AM,71.654630,-170.527824,True,3,9.0,-3.55,71.383290,-170.311390,2,School of Fisheries and Ocean Sciences,,,,,,,,,
300234060755220,SFOS-MS-0037,12/11/2013 12:30:08 AM,71.653152,-170.519729,True,3,9.0,-3.50,71.347000,-172.297160,119,School of Fisheries and Ocean Sciences,,,,,,,,,
300234060755220,SFOS-MS-0037,12/11/2013 12:00:08 AM,71.651541,-170.511360,True,3,9.0,-3.45,71.383290,-170.311390,4,School of Fisheries and Ocean Sciences,,,,,,,,,
300234060755220,SFOS-MS-0037,12/10/2013 11:30:08 PM,71.649780,-170.503102,True,3,9.0,-3.45,71.386630,-170.378700,3,School of Fisheries and Ocean Sciences,,,,,,,,,
300234060755220,SFOS-MS-0037,12/10/2013 11:00:07 PM,71.647922,-170.494374,True,3,9.0,-3.40,71.383290,-170.311390,3,School of Fisheries and Ocean Sciences,,,,,,,,,
300234060755220,SFOS-MS-0037,12/10/2013 10:30:07 PM,71.645963,-170.485249,True,3,9.0,-3.40,71.400030,-170.232730,5,School of Fisheries and Ocean Sciences,,,,,,,,,
300234060755220,SFOS-MS-0037,12/10/2013 10:00:37 PM,71.643886,-170.475991,True,3,9.0,-3.35,71.363160,-170.322600,5,School of Fisheries and Ocean Sciences,,,,,,,,,
300234060755220,SFOS-MS-0037,12/10/2013 9:30:08 PM,71.641802,-170.465921,True,3,9.0,-3.30,71.379910,-170.244110,1,School of Fisheries and Ocean Sciences,,,,,,,,,
300234060755220,SFOS-MS-0037,12/10/2013 9:00:08 PM,71.639600,-170.455849,True,3,9.0,-3.30,71.359790,-170.255460,2,School of Fisheries and Ocean Sciences,,,,,,,,,
300234060755220,SFOS-MS-0037,12/10/2013 8:30:08 PM,71.637361,-170.445438,True,3,9.0,-3.25,71.379910,-170.244110,2,School of Fisheries and Ocean Sciences,,,,,,,,,
300234060755220,SFOS-MS-0037,12/10/2013 8:00:08 PM,71.635172,-170.434479,True,3,9.0,-3.25,71.379910,-170.244110,2,School of Fisheries and Ocean Sciences,,,,,,,,,
300234060755220,SFOS-MS-0037,12/10/2013 7:30:08 PM,71.633088,-170.423010,True,3,9.0,-3.20,71.383290,-170.311390,3,School of Fisheries and Ocean Sciences,,,,,,,,,
300234060755220,SFOS-MS-0037,12/10/2013 7:00:38 PM,71.631163,-170.411268,True,3,9.0,-3.20,71.403420,-170.300130,3,School of Fisheries and Ocean Sciences,,,,,,,,,
300234060755220,SFOS-MS-0037,12/10/2013 6:30:09 PM,71.629241,-170.398443,True,3,9.0,-3.15,71.352990,-170.255460,4,School of Fisheries and Ocean Sciences,,,,,,,,,
300234060755220,SFOS-MS-0037,12/10/2013 6:00:08 PM,71.627511,-170.384771,True,3,9.0,-3.10,71.469640,-172.456760,115,School of Fisheries and Ocean Sciences,,,,,,,,,
300234060755220,SFOS-MS-0037,12/10/2013 5:30:08 PM,71.626016,-170.371063,True,3,9.0,-3.10,71.383290,-170.311390,3,School of Fisheries and Ocean Sciences,,,,,,,,,
300234060755220,SFOS-MS-0037,12/10/2013 5:00:08 PM,71.624727,-170.357410,True,3,9.0,-3.05,71.379910,-170.244110,2,School of Fisheries and Ocean Sciences,,,,,,,,,
300234060755220,SFOS-MS-0037,12/10/2013 4:30:07 PM,71.623558,-170.343810,True,3,9.0,-3.05,71.379910,-170.244110,2,School of Fisheries and Ocean Sciences,,,,,,,,,
300234060755220,SFOS-MS-0037,12/10/2013 4:00:37 PM,71.622430,-170.330174,True,3,9.0,-3.00,71.369700,-170.176890,3,School of Fisheries and Ocean Sciences,,,,,,,,,
300234060755220,SFOS-MS-0037,12/10/2013 3:30:31 PM,71.621380,-170.315685,True,3,9.0,-3.00,71.349580,-170.188360,3,School of Fisheries and Ocean Sciences,,,,,,,,,
300234060755220,SFOS-MS-0037,12/10/2013 3:00:07 PM,71.620411,-170.301121,True,3,9.0,-2.95,71.349580,-170.188360,4,School of Fisheries and Ocean Sciences,,,,,,,,,
300234060755220,SFOS-MS-0037,12/10/2013 2:30:07 PM,71.619647,-170.286863,True,3,9.0,-2.95,71.349580,-170.188360,3,School of Fisheries and Ocean Sciences,,,,,,,,,
300234060755220,SFOS-MS-0037,12/10/2013 2:00:07 PM,71.618944,-170.273182,True,3,9.0,-2.90,71.373030,-170.109710,2,School of Fisheries and Ocean Sciences,,,,,,,,,
300234060755220,SFOS-MS-0037,12/10/2013 1:30:08 PM,71.618288,-170.260027,True,3,9.0,-2.90,71.352990,-170.255460,11,School of Fisheries and Ocean Sciences,,,,,,,,,
300234060755220,SFOS-MS-0037,12/10/2013 1:00:38 PM,71.617569,-170.247452,True,3,9.0,-2.85,71.349580,-170.188360,4,School of Fisheries and Ocean Sciences,,,,,,,,,
300234060755220,SFOS-MS-0037,12/10/2013 12:30:09 PM,71.616830,-170.235404,True,3,9.0,-2.85,71.396610,-170.165370,6,School of Fisheries and Ocean Sciences,,,,,,,,,
300234060755220,SFOS-MS-0037,12/10/2013 12:00:08 PM,71.616044,-170.223360,True,3,9.0,-2.80,72.170200,-176.976400,222,School of Fisheries and Ocean Sciences,,,,,,,,,
300234060755220,SFOS-MS-0037,12/10/2013 11:30:08 AM,71.615319,-170.211877,True,3,9.0,-2.80,71.346130,-170.121300,2,School of Fisheries and Ocean Sciences,,,,,,,,,
300234060755220,SFOS-MS-0037,12/10/2013 11:00:09 AM,71.614538,-170.200657,True,3,9.0,-2.80,71.376490,-170.176890,3,School of Fisheries and Ocean Sciences,,,,,,,,,
300234060755220,SFOS-MS-0037,12/10/2013 10:30:09 AM,71.613725,-170.189627,True,3,9.0,-2.75,71.366240,-170.109710,3,School of Fisheries and Ocean Sciences,,,,,,,,,
300234060755220,SFOS-MS-0037,12/10/2013 10:00:38 AM,71.612916,-170.178857,True,3,9.0,-2.75,71.346130,-170.121300,4,School of Fisheries and Ocean Sciences,,,,,,,,,
300234060755220,SFOS-MS-0037,12/10/2013 9:30:13 AM,71.612033,-170.167555,True,3,9.0,-2.75,71.393140,-170.980600,6,School of Fisheries and Ocean Sciences,,,,,,,,,
300234060755220,SFOS-MS-0037,12/10/2013 9:00:09 AM,71.611438,-170.156182,True,3,9.0,-2.70,71.346130,-170.121300,2,School of Fisheries and Ocean Sciences,,,,,,,,,
300234060755220,SFOS-MS-0037,12/10/2013 8:30:08 AM,71.610800,-170.144313,True,3,9.0,-2.70,71.342630,-170.543000,10,School of Fisheries and Ocean Sciences,,,,,,,,,
300234060755220,SFOS-MS-0037,12/10/2013 8:00:07 AM,71.610294,-170.131927,True,3,9.0,-2.70,71.346130,-170.121300,2,School of Fisheries and Ocean Sciences,,,,,,,,,
300234060755220,SFOS-MS-0037,12/10/2013 7:30:07 AM,71.609994,-170.119088,True,3,9.0,-2.65,71.365990,-169.575480,2,School of Fisheries and Ocean Sciences,,,,,,,,,
300234060755220,SFOS-MS-0037,12/10/2013 7:00:08 AM,71.609936,-170.105860,True,3,9.0,-2.65,71.359200,-169.575480,7,School of Fisheries and Ocean Sciences,,,,,,,,,
300234060755220,SFOS-MS-0037,12/10/2013 6:30:08 AM,71.610194,-170.092541,True,3,9.0,-2.65,71.369530,-170.425700,2,School of Fisheries and Ocean Sciences,,,,,,,,,
300234060755220,SFOS-MS-0037,12/10/2013 6:00:37 AM,71.610811,-170.079091,True,3,9.0,-2.65,71.373030,-170.109710,8,School of Fisheries and Ocean Sciences,,,,,,,,,
300234060755220,SFOS-MS-0037,12/10/2013 5:30:08 AM,71.611822,-170.065016,True,3,9.0,-2.60,71.365990,-169.575480,3,School of Fisheries and Ocean Sciences,,,,,,,,,
300234060755220,SFOS-MS-0037,12/10/2013 5:00:08 AM,71.613061,-170.051010,True,3,9.0,-2.60,71.342630,-170.543000,3,School of Fisheries and Ocean Sciences,,,,,,,,,
300234060755220,SFOS-MS-0037,12/10/2013 4:30:08 AM,71.614691,-170.037193,True,3,9.0,-2.60,71.352990,-170.255460,71,School of Fisheries and Ocean Sciences,,,,,,,,,
300234060755220,SFOS-MS-0037,12/10/2013 4:00:09 AM,71.616711,-170.023910,True,3,9.0,-2.60,71.386080,-169.563580,2,School of Fisheries and Ocean Sciences,,,,,,,,,
300234060755220,SFOS-MS-0037,12/10/2013 3:30:37 AM,71.618894,-170.011516,True,3,9.0,-2.55,71.359200,-169.575480,2,School of Fisheries and Ocean Sciences,,,,,,,,,
300234060755220,SFOS-MS-0037,12/10/2013 3:00:09 AM,71.621488,-169.999357,True,3,9.0,-2.55,71.346130,-170.121300,14,School of Fisheries and Ocean Sciences,,,,,,,,,
300234060755220,SFOS-MS-0037,12/10/2013 2:30:08 AM,71.624344,-169.987718,True,3,9.0,-2.55,71.359200,-169.575480,2,School of Fisheries and Ocean Sciences,,,,,,,,,
300234060755220,SFOS-MS-0037,12/10/2013 2:00:08 AM,71.627452,-169.976735,True,3,9.0,-2.55,71.359200,-169.575480,4,School of Fisheries and Ocean Sciences,,,,,,,,,
300234060755220,SFOS-MS-0037,12/10/2013 1:30:08 AM,71.630844,-169.966707,True,3,9.0,-2.55,71.359200,-169.575480,3,School of Fisheries and Ocean Sciences,,,,,,,,,
300234060755220,SFOS-MS-0037,12/10/2013 1:00:07 AM,71.634172,-169.957724,True,3,9.0,-2.50,71.369530,-170.425700,3,School of Fisheries and Ocean Sciences,,,,,,,,,
300234060755220,SFOS-MS-0037,12/10/2013 12:30:07 AM,71.637463,-169.949943,True,3,9.0,-2.50,71.389630,-170.308000,3,School of Fisheries and Ocean Sciences,,,,,,,,,
300234060755220,SFOS-MS-0037,12/10/2013 12:00:37 AM,71.640719,-169.942716,True,3,9.5,-2.50,71.386080,-169.563580,2,School of Fisheries and Ocean Sciences,,,,,,,,,
300234060755220,SFOS-MS-0037,12/9/2013 11:30:08 PM,71.644027,-169.935541,True,3,9.5,-2.50,71.365990,-169.575480,3,School of Fisheries and Ocean Sciences,,,,,,,,,
300234060755220,SFOS-MS-0037,12/9/2013 11:00:08 PM,71.647175,-169.928635,True,3,9.5,-2.50,71.386080,-169.563580,2,School of Fisheries and Ocean Sciences,,,,,,,,,
300234060755220,SFOS-MS-0037,12/9/2013 10:30:08 PM,71.650550,-169.921327,True,3,9.5,-2.45,71.382500,-169.496410,2,School of Fisheries and Ocean Sciences,,,,,,,,,
300234060755220,SFOS-MS-0037,12/9/2013 10:00:08 PM,71.654061,-169.913538,True,3,9.5,-2.45,71.402590,-169.484340,4,School of Fisheries and Ocean Sciences,,,,,,,,,
300234060755220,SFOS-MS-0037,12/9/2013 9:30:37 PM,71.657652,-169.905643,True,3,9.5,-2.45,71.386080,-169.563580,8,School of Fisheries and Ocean Sciences,,,,,,,,,
300234060755220,SFOS-MS-0037,12/9/2013 9:00:09 PM,71.661419,-169.897243,True,3,9.5,-2.45,71.382500,-169.496410,3,School of Fisheries and Ocean Sciences,,,,,,,,,
300234060755220,SFOS-MS-0037,12/9/2013 8:30:09 PM,71.665327,-169.888635,True,3,9.5,-2.45,72.849500,-176.835600,235,School of Fisheries and Ocean Sciences,,,,,,,,,
300234060755220,SFOS-MS-0037,12/9/2013 8:00:08 PM,71.669350,-169.879810,True,3,9.5,-2.45,71.486330,-167.514280,100,School of Fisheries and Ocean Sciences,,,,,,,,,
300234060755220,SFOS-MS-0037,12/9/2013 7:30:08 PM,71.673491,-169.870541,True,3,9.5,-2.45,71.382500,-169.496410,2,School of Fisheries and Ocean Sciences,,,,,,,,,
300234060755220,SFOS-MS-0037,12/9/2013 7:00:08 PM,71.677738,-169.860955,True,3,9.5,-2.45,71.402590,-169.484340,2,School of Fisheries and Ocean Sciences,,,,,,,,,
300234060755220,SFOS-MS-0037,12/9/2013 6:30:08 PM,71.682191,-169.850643,True,3,9.5,-2.45,71.402590,-169.484340,4,School of Fisheries and Ocean Sciences,,,,,,,,,
300234060755220,SFOS-MS-0037,12/9/2013 6:00:37 PM,71.686572,-169.840013,True,3,9.5,-2.45,71.420170,-170.221290,69,School of Fisheries and Ocean Sciences,,,,,,,,,
300234060755220,SFOS-MS-0037,12/9/2013 5:30:08 PM,71.691277,-169.828596,True,3,9.5,-2.40,71.406190,-169.551640,3,School of Fisheries and Ocean Sciences,,,,,,,,,
300234060755220,SFOS-MS-0037,12/9/2013 5:00:08 PM,71.696069,-169.816430,True,3,9.5,-2.40,71.402590,-169.484340,11,School of Fisheries and Ocean Sciences,,,,,,,,,
300234060755220,SFOS-MS-0037,12/9/2013 4:30:07 PM,71.701027,-169.804124,True,3,9.5,-2.40,71.406190,-169.551640,2,School of Fisheries and Ocean Sciences,,,,,,,,,
300234060755220,SFOS-MS-0037,12/9/2013 4:00:07 PM,71.706080,-169.791713,True,3,9.5,-2.40,71.476260,-171.220300,137,School of Fisheries and Ocean Sciences,,,,,,,,,
300234060755220,SFOS-MS-0037,12/9/2013 3:30:07 PM,71.711236,-169.779146,True,3,9.5,-2.40,71.426290,-169.539640,5,School of Fisheries and Ocean Sciences,,,,,,,,,
300234060755220,SFOS-MS-0037,12/9/2013 3:00:07 PM,71.716091,-169.765632,True,3,9.5,-2.40,71.433040,-169.539640,2,School of Fisheries and Ocean Sciences,,,,,,,,,
300234060755220,SFOS-MS-0037,12/9/2013 2:30:36 PM,71.720886,-169.751932,True,3,9.5,-2.40,71.419050,-169.404840,3,School of Fisheries and Ocean Sciences,,,,,,,,,